Cloud_Cover
0 0 0 0 0 0 0 0 0 0 0 0 0 0 0 0 0 0 0 0 0 0 3 0 0 0 0 0 0 0 0 0 0 0 0 0 0 0 0 2 1 0 8
0 0 0 0 0 0 0 0 0 0 0 0 0 0 0 0 0 0 0 0 0 0 0 0 0 0 0 0 0 0 0 0 0 0 0 0 0 0 0 0 0 0 7
0 0 0 0 0 0 0 0 0 0 0 0 0 0 0 0 0 0 0 0 0 0 0 0 0 0 0 0 0 0 0 0 0 0 0 0 0 10 0 0 8 11 10
12 0 0 0 0 0 0 0 0 0 0 0 0 0 0 0 0 0 0 0 0 1 0 0 0 0 0 0 0 0 0 0 0 0 0 0 0 5 5 0 3 0 0
96 5 0 0 0 0 0 0 0 0 0 0 0 0 0 0 0 0 0 0 0 0 0 0 0 0 0 0 0 0 0 0 0 0 0 0 0 0 0 0 0 0 0
93 8 1 3 0 0 0 0 0 0 0 0 0 0 0 0 0 0 0 4 0 13 22 12 0 0 0 0 0 0 0 0 0 0 0 0 0 0 0 0 0 0 0
88 90 97 91 81 4 0 0 0 0 0 0 0 0 0 0 0 0 0 0 5 5 0 0 0 0 0 0 0 0 0 0 0 0 0 0 0 0 6 0 0 0 0
7 90 51 100 100 5 0 84 5 0 0 0 0 0 0 0 0 0 0 0 2 5 5 5 2 5 3 0 0 0 0 0 0 0 0 0 0 0 0 0 0 0 0
78 26 23 23 100 7 4 52 9 5 12 5 1 0 0 0 0 0 0 4 0 5 5 5 19 55 6 5 5 3 0 0 0 0 0 0 0 0 0 0 0 0 0
92 99 36 89 100 82 83 5 44 8 21 5 18 4 0 1 0 0 0 2 5 5 5 5 5 14 80 93 6 5 5 3 0 0 0 0 0 0 0 1 0 0 0
86 41 40 76 100 100 100 26 52 10 35 71 40 94 5 6 6 5 5 3 4 5 24 46 10 5 32 100 90 26 5 5 5 1 0 0 0 0 0 0 0 0 0
100 100 71 40 99 100 44 37 99 100 17 95 100 94 45 27 27 32 13 4 5 5 5 7 97 34 41 24 83 88 84 45 13 5 3 0 0 0 0 0 0 0 0
72 100 100 100 85 76 83 66 86 86 100 26 51 100 93 100 99 83 58 24 21 10 31 58 28 69 47 23 18 72 18 5 14 88 37 5 5 2 0 0 3 5 5
5 37 93 98 100 88 85 48 88 73 69 100 37 14 74 75 100 99 54 30 78 100 59 86 56 97 97 75 75 96 84 12 5 5 23 18 15 5 5 5 4 8 5
1 5 6 58 99 100 100 100 100 69 100 100 100 100 97 69 41 99 100 84 35 100 47 100 100 100 72 94 83 80 77 91 85 81 15 8 5 5 5 5 5 57 22
5 5 5 34 96 69 79 99 100 100 100 100 100 100 100 100 100 100 100 100 89 92 68 68 100 100 100 100 100 100 95 96 100 100 94 62 20 5 5 5 5 5 5
5 5 5 3 15 98 100 58 100 100 100 100 99 100 100 100 100 100 100 100 100 100 98 64 100 100 100 100 100 100 100 100 93 90 100 100 18 5 8 18 1 3 34
41 100 29 5 5 5 51 100 46 100 100 100 100 100 100 100 100 100 100 100 100 100 100 99 98 98 100 100 100 100 100 100 100 99 100 100 88 43 100 100 100 100 100
64 97 100 100 98 33 49 97 96 58 100 100 100 100 100 100 100 100 100 100 100 100 100 82 93 100 100 62 99 100 100 100 100 94 98 100 100 97 100 100 100 100 100
86 18 100 100 100 100 100 100 93 100 100 100 100 100 100 75 82 100 100 100 100 100 99 100 97 100 100 100 100 100 100 100 100 53 82 100 100 94 50 60 100 100 100
1 34 21 76 93 100 100 100 100 100 100 100 53 100 100 97 86 99 98 100 99 100 100 100 100 100 100 100 100 100 100 100 100 92 99 99 100 100 100 99 100 51 100
0 5 67 44 90 100 100 100 100 100 100 100 100 100 100 100 100 100 100 100 100 100 100 100 100 96 100 100 100 100 100 100 100 100 100 100 100 100 100 100 100 100 100
5 5 92 75 85 100 100 100 100 100 100 100 100 100 100 100 100 100 100 100 100 100 100 100 79 94 97 100 100 100 100 100 100 100 100 100 100 100 100 82 100 100 100
100 96 100 100 100 100 100 100 100 100 100 100 100 100 100 100 100 100 100 100 100 100 100 98 100 97 86 100 100 100 100 100 100 100 100 100 100 100 100 100 99 100 100
100 100 100 100 100 100 100 100 100 100 100 100 100 100 100 100 100 100 100 100 100 100 100 100 91 100 100 100 100 100 100 100 100 100 100 100 100 100 100 100 100 100 100
100 100 100 100 100 100 100 100 100 100 100 100 100 100 100 100 100 100 100 100 100 100 100 31 97 100 100 100 92 100 100 100 100 100 100 100 100 100 100 100 100 100 100